Regional Weather Roundup
Issued by NWS Upton, NY

Current Version | Previous Version | Text Only | Print | Product List | Glossary On
Versions: 1 2 3 4 5 6 7 8 9 10 11 12 13 14 15 16 17 18 19 20 21 22 23 24 25 26 27 28 29 30 31 32 33 34 35 36 37 38 39 40 41 42 43 44 45 46 47 48 49 50
000
ASUS41 KOKX 011904
RWROKX

REGIONAL WEATHER ROUNDUP
NATIONAL WEATHER SERVICE NEW YORK NY
300 PM EDT SAT AUG 01 2015

NOTE: "FAIR" INDICATES FEW OR NO CLOUDS BELOW 12,000 FEET WITH NO
SIGNIFICANT WEATHER AND/OR OBSTRUCTIONS TO VISIBILITY.

NYZ071-072-176-178-NJZ106-104-012000-
NEW YORK CITY METRO AREA


CITY           SKY/WX    TMP DP  RH WIND       PRES   REMARKS
CENTRAL PARK   MOSUNNY   88  56  33 MISG      29.80F
LAGUARDIA APRT PTSUNNY   90  52  27 W14       29.77F
KENNEDY INTL   PTSUNNY   90  57  32 SW21      29.79F
NEWARK/LIBERTY MOSUNNY   91  51  25 W16G28    29.77F
BRNX BOT. GARD   N/A     84  59  42 SW13      29.79F
TETERBORO      MOSUNNY   88  57  34 W10G22    29.76F
$$

NYZ177-179-078>081-012000-
LONG ISLAND NEW YORK

CITY           SKY/WX    TMP DP  RH WIND       PRES   REMARKS
FARMINGDALE    SUNNY     89  57  33 SW16G28   29.78F
ISLIP          PTSUNNY   89  58  34 SW18G25   29.75F
SHIRLEY        MOSUNNY   89  59  36 SW16G23   29.77F
WESTHAMPTON    MOSUNNY   89  63  41 SW14G29   29.78F HX  90
MONTAUK POINT    N/A     86  69  56 S7        29.78F HX  90
$$

NYZ052-065-067-012000-
HUDSON VALLEY

CITY           SKY/WX    TMP DP  RH WIND       PRES   REMARKS
WHITE PLAINS   MOSUNNY   82  63  52 W9        29.79S
NEWBURGH       MOSUNNY   88  57  35 W14G23    29.80S
MONTGOMERY     MOSUNNY   86  57  37 NW16G25   29.79F
POUGHKEEPSIE   MOSUNNY   88  53  30 W10G20    29.75F
ALBANY         MOSUNNY   84  55  36 W17       29.77F
$$

NJZ001-105-106-008-010-013-015-019>022-104-012000-
NEW JERSEY

CITY           SKY/WX    TMP DP  RH WIND       PRES   REMARKS
NEWARK/LIBERTY MOSUNNY   91  51  25 W16G28    29.77F
TETERBORO      MOSUNNY   88  57  34 W10G22    29.76F
CALDWELL       MOSUNNY   87  57  35 W7G20     29.78F
MORRISTOWN     MOSUNNY   90  57  33 W12G24    29.79F
SOMERVILLE     MOSUNNY   87  58  37 W9        29.78F
SUSSEX         MOSUNNY   85  56  37 W12G17    29.80F
ANDOVER          N/A     84  59  42 VRB6      29.82S
TRENTON        MOSUNNY   87  59  38 W12G18    29.81F
MILLVILLE      SUNNY     90  56  31 W13       29.84F
ATLANTIC CITY  SUNNY     89  60  37 W13       29.83F
WRIGHTSTOWN    NOT AVBL
TOMS RIVER       N/A     90  55  31 SW15      29.81F
BELMAR         MOSUNNY   90  57  33 SW13      29.81F
$$

PAZ047>061-062-071-012000-
EASTERN PENNSYLVANIA

CITY           SKY/WX    TMP DP  RH WIND       PRES   REMARKS
PHILADELPHIA   PTSUNNY   87  57  35 W16       29.83F
ALLENTOWN      SUNNY     85  56  37 W14G23    29.82F
SCRANTON       PTSUNNY   81  56  42 NW10      29.85S
$$

CTZ002-004>006-009-010-012-RIZ004-006-007-MAZ004-011-015-012000-
SOUTHERN NEW ENGLAND
 IN CT

CITY           SKY/WX    TMP DP  RH WIND       PRES   REMARKS
BRADLEY INTL   PTSUNNY   81  60  48 N18G25    29.76R
HARTFORD       LGT RAIN  82  59  45 NW10      29.74S
DANBURY        PTSUNNY   82  56  40 W6        29.79F
WTRBRY/OXFORD  MOSUNNY   84  59  42 W9G17     29.80F
BRIDGEPORT     MOSUNNY   85  65  51 SW9       29.76F
MERIDEN        MOSUNNY   90  55  30 W8G20     29.75F
NEW HAVEN      SUNNY     84  63  49 SW12G18   29.76F
CHESTER        FAIR      84  64  51 SW7       29.77F
GROTON         MOSUNNY   84  65  52 SW14      29.74F
WILLIMANTIC    SUNNY     88  56  33 SW14G20   29.74F

 IN RI

CITY           SKY/WX    TMP DP  RH WIND       PRES   REMARKS
PROVIDENCE     MOSUNNY   88  61  40 SW17G23   29.73F
BLOCK ISLAND     N/A     81  70  69 SW14G23   29.79S
WESTERLY       SUNNY     83  64  52 W13G18    29.76F

 IN MA

CITY           SKY/WX    TMP DP  RH WIND       PRES   REMARKS
BOSTON         PTSUNNY   89  57  33 SW13G25   29.70F
WORCESTER      PTSUNNY   75  58  55 NW24G41   29.78S
WESTFIELD      CLOUDY    76  58  53 NW9       29.77R
PROVINCETOWN   MOSUNNY   81  63  54 SW16G22   29.72S
NANTUCKET      SUNNY     78  70  76 S16       29.78F
$$

ANZ330-335-338-340-345-350-353-355-012000-
COASTAL MARINE OBSERVATIONS


STATION/POSITION TIME  SKY/WX   TEMP    WIND        PRES    VSBY  WAVE
                                AIR SEA DIR/SP/G                  HT/PER
                 (UTC)          (F)     (DEG/KT/KT) (MB)    (MI)  (FT/S)
NY HARB ENTRANCE 1750            79 77  250/ 10/ 10 1009.1          3/10
4S FIRE IS       NOT AVBL
20S FIRE ISLAND  1750            78 76  220/ 10/ 12 1009.3          4/10
GREAT SOUTH BAY  1815            81 81  250/ 16/ 19   N/A
23SW MTP         1850            76 74  230/ 16/ 17 1008.1          4/ 9
HUDSON CANYON    NOT AVBL
KINGS POINT      1800            83 70  280/ 12/ 16 1007.9
EXECUTION ROCKS  1800            81     230/  6/ 10   N/A
CENTRAL LI SOUND NOT AVBL
EASTERN LI SOUND 1800            74 68  260/ 10/ 12   N/A
ROBBINS REEF     1800            84     290/ 17/ 22 1007.5
$$


>>>>>>>>>>>>>>>>>>>>>>>>>>>> KEY <<<<<<<<<<<<<<<<<<<<<<<<<<<
>                                                          <
>     SKY/WX - SKY CONDITION/PRESENT WEATHER               <
>     TMP    - TEMPERATURE IN FAHRENHEIT                   <
>     DP     - DEWPOINT IN FAHRENHEIT                      <
>     RH     - RELATIVE HUMIDITY IN PERCENT                <
>     WIND   - DIRECTION AND SPEED IN MPH                  <
>     PRES   - MEAN SEA LEVEL PRESSURE IN INCHES OF HG     <
>     WCI    - WIND CHILL INDEX                            <
>     VSB    - VISIBILITY IN MILES                         <
>     HX     - HEAT INDEX                                  <
>     TC     - TEMPERATURE IN CELSIUS                      <
>     VRB    - VARIABLE WIND DIRECTION                     <
>                                                          <
>>>>>>>>>>>>>>>>>>>>>>>>>>>> KEY <<<<<<<<<<<<<<<<<<<<<<<<<<<




USA.gov is the U.S. government's official web portal to all federal, state and local government web resources and services.